DW4465 Weather Reports


time (UTC)temp
F
wind
direction
speed
knots
gust
knots
rain 1hr
in
rain 24hr
in
rain mn
in
humidity
%
barometer
mb
20260510151539 63 190 0.9 3.5 0.00 0.00 0.00 82 1013.5
20260510150039 62 192 0.9 4.3 0.00 0.00 0.00 83 1013.5
20260510144543 62 163 0.0 0.9 0.00 0.00 0.00 83 1013.5
20260510143044 62 0 0.0 1.7 0.00 0.00 0.00 84 1013.4
20260510141544 61 163 0.0 2.6 0.00 0.00 0.00 84 1013.4
20260510140040 61 0 0.0 2.6 0.00 0.00 0.00 84 1013.3
20260510134545 61 0 0.0 2.6 0.00 0.00 0.00 84 1013.2
20260510133047 61 198 0.9 3.5 0.00 0.00 0.00 85 1013.1
20260510131539 61 0 0.0 1.7 0.00 0.00 0.00 85 1012.9
20260510130044 61 0 0.0 1.7 0.00 0.00 0.00 85 1012.9
20260510124557 61 0 0.0 1.7 0.00 0.00 0.00 85 1012.7
20260510123045 61 0 0.0 1.7 0.00 0.00 0.00 85 1012.9
20260510121544 61 0 0.0 1.7 0.00 0.00 0.00 86 1013.0
20260510120047 61 0 0.0 0.9 0.00 0.00 0.00 86 1012.9
20260510114545 61 0 0.0 1.7 0.00 0.00 0.00 86 1012.8
20260510113041 60 0 0.0 0.9 0.00 0.00 0.00 86 1012.8
20260510111549 60 0 0.0 0.9 0.00 0.00 0.00 86 1012.7
20260510110047 60 0 0.0 0.9 0.00 0.00 0.00 86 1012.8
20260510104544 60 0 0.0 0.9 0.00 0.00 0.00 86 1012.9
20260510103044 60 0 0.0 0.9 0.00 0.00 0.00 86 1012.8
20260510101542 60 0 0.0 0.9 0.00 0.00 0.00 86 1012.9
20260510100039 60 0 0.0 1.7 0.00 0.00 0.00 86 1013.0
20260510094600 60 167 0.0 2.6 0.00 0.00 0.00 85 1012.9
20260510093054 60 0 0.0 2.6 0.00 0.00 0.00 85 1012.9
20260510091546 60 0 0.0 4.3 0.00 0.00 0.00 85 1013.0
20260510090042 60 0 0.9 5.2 0.00 0.00 0.00 85 1013.0
20260510084540 61 0 0.0 3.5 0.00 0.00 0.00 85 1013.0
20260510083037 61 183 0.0 3.5 0.00 0.00 0.00 85 1013.0
20260510081547 61 197 0.0 1.7 0.00 0.00 0.00 85 1013.2
20260510080037 61 0 0.9 4.3 0.00 0.00 0.00 85 1013.2
20260510074544 61 117 0.9 1.7 0.00 0.00 0.00 85 1013.3
20260510073045 61 211 0.9 3.5 0.00 0.00 0.00 85 1013.3
20260510071548 61 207 1.7 5.2 0.00 0.00 0.00 85 1013.4
20260510070039 61 187 0.0 4.3 0.00 0.00 0.00 85 1013.2
20260510064537 62 197 1.7 4.3 0.00 0.00 0.00 84 1013.3
20260510063043 61 0 0.9 2.6 0.00 0.00 0.00 85 1013.2
20260510061542 61 192 0.0 1.7 0.00 0.00 0.00 84 1013.3
20260510060042 61 0 0.0 0.9 0.00 0.00 0.00 84 1013.3
20260510054549 61 0 0.0 0.9 0.00 0.00 0.00 84 1013.3
20260510053058 61 0 0.0 0.9 0.00 0.00 0.00 83 1013.4
20260510051548 61 0 0.0 1.7 0.00 0.00 0.00 83 1013.4
20260510050047 61 0 0.0 0.9 0.00 0.00 0.00 83 1013.4
20260510044543 61 0 0.0 2.6 0.00 0.00 0.00 82 1013.4
20260510043050 61 0 0.0 1.7 0.00 0.00 0.00 82 1013.3
20260510041547 62 0 0.0 1.7 0.00 0.00 0.00 81 1013.3
20260510040042 62 0 0.0 1.7 0.00 0.00 0.00 80 1013.1
20260510034540 63 0 0.9 3.5 0.00 0.00 0.00 80 1012.9
20260510033037 63 0 0.0 2.6 0.00 0.00 0.00 79 1012.6
20260510031546 64 0 0.9 4.3 0.00 0.00 0.00 78 1012.4
20260510030037 65 289 0.9 2.6 0.00 0.00 0.00 76 1012.2
20260510024544 65 0 0.0 3.5 0.00 0.00 0.00 75 1012.0
20260510023043 66 300 0.0 2.6 0.00 0.00 0.00 73 1011.8
20260510021547 67 293 0.9 4.3 0.00 0.00 0.00 71 1011.8
20260510020039 69 303 0.9 3.5 0.00 0.00 0.00 69 1011.6
20260510014538 71 274 0.9 4.3 0.00 0.00 0.00 66 1011.5
20260510013046 73 319 0.9 5.2 0.00 0.00 0.00 65 1011.3
20260510011543 73 244 0.9 3.5 0.00 0.00 0.00 65 1011.2
20260510010044 74 289 0.0 3.5 0.00 0.00 0.00 64 1011.1
20260510004551 74 150 0.0 5.2 0.00 0.00 0.00 64 1011.2
20260510003045 73 192 3.5 6.1 0.00 0.00 0.00 65 1011.1
20260510001547 73 164 3.5 7.0 0.00 0.00 0.00 66 1011.3
20260510000051 73 159 2.6 7.0 0.00 0.00 0.00 66 1011.3
20260509234544 75 200 2.6 7.8 0.00 0.00 0.00 64 1011.4
20260509233043 74 214 2.6 7.8 0.00 0.00 0.00 65 1011.4
20260509231543 74 224 2.6 7.8 0.00 0.00 0.00 66 1011.4
20260509230045 74 157 2.6 9.6 0.00 0.00 0.00 65 1011.4
20260509224547 75 190 2.6 7.8 0.00 0.00 0.00 64 1011.5
20260509223043 75 205 4.3 8.7 0.00 0.00 0.00 64 1011.7
20260509221543 74 180 3.5 8.7 0.00 0.00 0.00 65 1011.9
20260509220048 74 165 2.6 7.0 0.00 0.00 0.00 64 1012.1
20260509214552 74 169 4.3 9.6 0.00 0.00 0.00 65 1012.0
20260509213037 73 196 5.2 9.6 0.00 0.00 0.00 65 1012.2
20260509211548 74 190 1.7 7.0 0.00 0.00 0.00 65 1012.5
20260509210049 73 229 2.6 9.6 0.00 0.00 0.00 67 1012.8
20260509204543 73 207 3.5 8.7 0.00 0.00 0.00 66 1012.9
20260509203050 72 148 1.7 7.8 0.00 0.00 0.00 67 1013.0
20260509201537 72 186 2.6 7.8 0.00 0.00 0.00 68 1013.1
20260509200040 73 177 1.7 8.7 0.00 0.00 0.00 67 1013.3
20260509194537 72 160 3.5 8.7 0.00 0.00 0.00 68 1013.4
20260509193046 72 180 1.7 7.8 0.00 0.00 0.00 67 1013.6
20260509191554 72 170 2.6 7.0 0.00 0.00 0.00 68 1013.7
20260509190041 71 207 1.7 7.8 0.00 0.00 0.00 69 1013.8
20260509184548 71 283 1.7 6.1 0.00 0.00 0.00 69 1013.9
20260509183056 70 257 1.7 7.0 0.00 0.00 0.00 71 1014.0
20260509181548 69 333 0.9 5.2 0.00 0.00 0.00 72 1013.9
20260509180047 69 210 2.6 8.7 0.00 0.00 0.00 74 1014.0
20260509174601 68 48 0.9 4.3 0.00 0.00 0.00 75 1014.0
20260509173048 67 224 0.9 6.1 0.00 0.00 0.00 78 1014.1
20260509171544 66 0 0.9 3.5 0.00 0.00 0.00 79 1014.0
20260509170044 65 153 0.9 3.5 0.00 0.00 0.00 80 1013.9
20260509164553 65 230 0.0 1.7 0.00 0.00 0.00 82 1013.9
20260509163051 64 171 0.0 2.6 0.00 0.00 0.00 83 1013.9
20260509161549 63 211 0.0 2.6 0.00 0.00 0.00 84 1013.9
20260509160039 63 149 0.9 2.6 0.00 0.00 0.00 84 1014.1
20260509154544 63 205 0.0 3.5 0.00 0.00 0.00 84 1014.1
20260509153054 62 207 0.9 3.5 0.00 0.00 0.00 85 1014.1